This is the latest recevied weather packets stored in our database for station/object W2JBO-5. If no packets are shown the sender has not sent any weather packets the latest 10 day(s).
| Time | Temp. | Humidity | Pressure | Rain* | Wind** | Luminosity | Snow |
|---|---|---|---|---|---|---|---|
| 1777538506 | 20° C | 99% | 1009.4 hPa | 0 mm | - | 0 W/m² | - |
| 1777538203 | 20° C | 99% | 1009.4 hPa | 0 mm | - | 0 W/m² | - |
| 1777537898 | 20° C | 99% | 1009.4 hPa | 0 mm | - | 0 W/m² | - |
| 1777537595 | 20° C | 99% | 1009.6 hPa | 0 mm | - | 0 W/m² | - |
| 1777537290 | 20° C | 99% | 1009.7 hPa | 0 mm | - | 0 W/m² | - |
| 1777536987 | 20° C | 99% | 1009.5 hPa | 0 mm | - | 0 W/m² | - |
| 1777536684 | 19.44° C | 99% | 1010 hPa | 0 mm | - | 0 W/m² | - |
| 1777536381 | 19.44° C | 99% | 1010 hPa | 0 mm | - | 0 W/m² | - |
| 1777536078 | 19.44° C | 99% | 1011 hPa | 1.78 mm | - | 0 W/m² | - |
| 1777535773 | 19.44° C | 99% | 1011 hPa | 1.78 mm | - | 0 W/m² | - |
| 1777535470 | 19.44° C | 99% | 1012 hPa | 1.27 mm | - | 0 W/m² | - |
| 1777535167 | 19.44° C | 99% | 1012 hPa | 4.32 mm | - | 0 W/m² | - |
| 1777534863 | 19.44° C | 99% | 1012 hPa | 4.83 mm | - | 0 W/m² | - |
| 1777534561 | 19.44° C | 99% | 1012 hPa | 4.83 mm | - | 0 W/m² | - |
| 1777534258 | 19.44° C | 99% | 1012 hPa | 3.05 mm | - | 0 W/m² | - |
| 1777533956 | 19.44° C | 99% | 1012 hPa | 1.78 mm | - | 0 W/m² | - |
| 1777533653 | 19.44° C | 99% | 1012 hPa | 1.78 mm | - | 0 W/m² | - |
| 1777533349 | 19.44° C | 99% | 1012 hPa | 1.27 mm | - | 0 W/m² | - |
| 1777533045 | 19.44° C | 99% | 1012 hPa | 1.78 mm | - | 0 W/m² | - |
| 1777532743 | 19.44° C | 99% | 1012 hPa | 1.78 mm | - | 0 W/m² | - |
| 1777532439 | 19.44° C | 99% | 1012 hPa | 1.27 mm | - | 0 W/m² | - |
| 1777532136 | 19.44° C | 99% | - | 3.05 mm | - | - | - |
| 1777531832 | 19.44° C | 99% | - | 1.78 mm | - | - | - |
| 1777531527 | 19.44° C | 99% | - | 1.27 mm | - | - | - |
| 1777531226 | 19.44° C | 99% | - | 3.05 mm | - | - | - |
* Rain latest hour (hover to see other rain measurements)
** Current wind speed in m/s (hover to see current wind gust speed)